User: anonymous   Login
Location: ?
(35.4554°N, 139.3092°E)
Time: 13:09:59
(UTC+00:00)
Language:

Cosmos 2263 - Orbit

View from above orbital plane
View from above orbital plane
View from above satellite
View from above satellite

Ground track
Ground track

The orbit data is extracted from the following two-line orbital elements,

1 22802U 93059A   21170.93802950 -.00000362  00000-0 -16702-3 0  9999
2 22802  70.9251 125.4124 0024819 199.4783 160.5392 14.13209901431929
Epoch (UTC): 19 June 2021 22:30:45
Eccentricity: 0.0024819
inclination: 70.9251°
perigee height: 830 km
apogee height: 866 km
right ascension of ascending node: 125.4124°
argument of perigee: 199.4783°
revolutions per day: 14.13209901
mean anomaly at epoch: 160.5392°
orbit number at epoch: 43192

The dashed part of the orbit path shows where the satellite is in the earth's shadow,  

DLR